| time (UTC) | temp F | wind direction | speed knots | gust knots | rain 1hr in | rain 24hr in | rain mn in | humidity % | barometer mb |
| 20260506124551 | 56 | 360 | 0.0 | 1.7 | 0.01 | 0.01 | 0.01 | 92 | 1008.6 |
| 20260506123051 | 56 | 360 | 0.0 | 0.9 | 0.00 | 0.00 | 0.00 | 92 | 1008.0 |
| 20260506121553 | 56 | 360 | 0.0 | 0.9 | 0.00 | 0.00 | 0.00 | 92 | 1007.9 |
| 20260506120049 | 56 | 360 | 0.0 | 0.9 | 0.00 | 0.00 | 0.00 | 91 | 1008.0 |
| 20260506114550 | 56 | 360 | 0.0 | 0.9 | 0.00 | 0.00 | 0.00 | 91 | 1008.1 |
| 20260506113046 | 55 | 360 | 0.0 | 0.9 | 0.00 | 0.00 | 0.00 | 90 | 1008.0 |
| 20260506111546 | 55 | 360 | 0.0 | 0.9 | 0.00 | 0.00 | 0.00 | 89 | 1007.9 |
| 20260506110045 | 55 | 360 | 0.0 | 0.9 | 0.00 | 0.00 | 0.00 | 90 | 1008.0 |
| 20260506104543 | 55 | 360 | 0.0 | 0.9 | 0.00 | 0.00 | 0.00 | 89 | 1007.8 |
| 20260506103051 | 55 | 360 | 0.0 | 0.9 | 0.00 | 0.00 | 0.00 | 89 | 1007.2 |
| 20260506101542 | 55 | 360 | 0.0 | 0.9 | 0.00 | 0.00 | 0.00 | 88 | 1007.5 |
| 20260506100042 | 55 | 360 | 0.0 | 0.9 | 0.00 | 0.00 | 0.00 | 87 | 1007.3 |
| 20260506094541 | 55 | 360 | 0.0 | 0.0 | 0.00 | 0.00 | 0.00 | 87 | 1007.6 |
| 20260506093040 | 55 | 360 | 0.0 | 0.9 | 0.00 | 0.00 | 0.00 | 87 | 1007.2 |
| 20260506091539 | 55 | 360 | 0.0 | 0.9 | 0.00 | 0.00 | 0.00 | 87 | 1007.2 |
| 20260506090046 | 55 | 360 | 0.0 | 1.7 | 0.00 | 0.00 | 0.00 | 87 | 1007.5 |
| 20260506084545 | 55 | 360 | 0.0 | 1.7 | 0.00 | 0.00 | 0.00 | 88 | 1007.6 |
| 20260506083035 | 54 | 360 | 0.0 | 0.9 | 0.00 | 0.00 | 0.00 | 88 | 1007.8 |
| 20260506081539 | 54 | 360 | 0.0 | 1.7 | 0.00 | 0.00 | 0.00 | 89 | 1007.6 |
| 20260506073032 | 54 | 360 | 0.0 | 1.7 | 0.00 | 0.00 | 0.00 | 90 | 1007.6 |
| 20260506071530 | 54 | 360 | 0.0 | 0.9 | 0.00 | 0.00 | 0.00 | 90 | 1007.8 |
| 20260506061543 | 53 | 360 | 0.0 | 0.9 | 0.00 | 0.00 | 0.00 | 88 | 1008.4 |
| 20260506044520 | 54 | 360 | 0.0 | 1.7 | 0.00 | 0.00 | 0.00 | 86 | 1008.7 |
| 20260506043026 | 54 | 360 | 0.0 | 0.9 | 0.00 | 0.00 | 0.00 | 85 | 1008.7 |
| 20260506041511 | 54 | 360 | 0.0 | 0.9 | 0.00 | 0.00 | 0.00 | 84 | 1008.9 |
| 20260506040009 | 55 | 360 | 0.0 | 1.7 | 0.00 | 0.00 | 0.00 | 85 | 1009.0 |
| 20260506034508 | 55 | 360 | 0.0 | 0.9 | 0.00 | 0.00 | 0.00 | 84 | 1009.0 |
| 20260506033011 | 56 | 360 | 0.0 | 1.7 | 0.00 | 0.00 | 0.00 | 82 | 1009.1 |
| 20260506031507 | 56 | 360 | 0.0 | 0.9 | 0.00 | 0.00 | 0.00 | 82 | 1009.0 |
| 20260506030006 | 57 | 360 | 0.0 | 1.7 | 0.00 | 0.00 | 0.00 | 81 | 1008.9 |
| 20260506024517 | 58 | 360 | 0.0 | 0.9 | 0.00 | 0.00 | 0.00 | 81 | 1008.9 |
| 20260506023005 | 59 | 360 | 0.0 | 0.9 | 0.00 | 0.00 | 0.00 | 80 | 1009.0 |
| 20260506021504 | 60 | 360 | 0.0 | 0.9 | 0.00 | 0.00 | 0.00 | 79 | 1008.7 |
| 20260506020006 | 61 | 360 | 0.0 | 1.7 | 0.00 | 0.00 | 0.00 | 78 | 1008.8 |
| 20260506014502 | 61 | 360 | 0.0 | 1.7 | 0.00 | 0.00 | 0.00 | 77 | 1008.8 |
| 20260506013002 | 62 | 360 | 0.0 | 1.7 | 0.00 | 0.00 | 0.00 | 76 | 1008.7 |
| 20260506011504 | 62 | 360 | 0.0 | 1.7 | 0.00 | 0.00 | 0.00 | 74 | 1008.6 |
| 20260506010002 | 64 | 360 | 0.0 | 0.9 | 0.00 | 0.00 | 0.00 | 71 | 1008.3 |
| 20260506004505 | 65 | 212 | 0.0 | 1.7 | 0.00 | 0.00 | 0.00 | 67 | 1008.2 |
| 20260506003001 | 66 | 207 | 0.0 | 1.7 | 0.00 | 0.00 | 0.00 | 66 | 1008.0 |
| 20260506001603 | 67 | 205 | 0.0 | 1.7 | 0.00 | 0.00 | 0.00 | 65 | 1008.1 |
| 20260506001502 | 67 | 205 | 0.0 | 1.7 | 0.00 | 0.00 | 0.00 | 65 | 1008.1 |
| 20260506000100 | 69 | 179 | 0.0 | 1.7 | 0.00 | 0.00 | 0.00 | 61 | 1008.1 |
| 20260505234608 | 70 | 178 | 0.0 | 1.7 | 0.00 | 0.00 | 0.00 | 59 | 1007.9 |
| 20260505233059 | 72 | 178 | 0.0 | 0.9 | 0.00 | 0.00 | 0.00 | 51 | 1007.8 |
| 20260505231607 | 73 | 178 | 0.0 | 0.9 | 0.00 | 0.00 | 0.00 | 50 | 1007.7 |
| 20260505230058 | 74 | 192 | 0.0 | 2.6 | 0.00 | 0.00 | 0.00 | 47 | 1007.6 |
| 20260505224557 | 74 | 148 | 0.9 | 3.5 | 0.00 | 0.00 | 0.00 | 45 | 1007.6 |
| 20260505223105 | 74 | 175 | 0.9 | 4.3 | 0.00 | 0.00 | 0.00 | 45 | 1007.5 |
| 20260505221600 | 74 | 192 | 1.7 | 6.1 | 0.00 | 0.00 | 0.00 | 46 | 1007.3 |
| 20260505220056 | 75 | 182 | 3.5 | 9.6 | 0.00 | 0.00 | 0.00 | 45 | 1007.3 |
| 20260505214615 | 75 | 159 | 2.6 | 7.8 | 0.00 | 0.00 | 0.00 | 45 | 1007.2 |
| 20260505213102 | 76 | 211 | 3.5 | 7.8 | 0.00 | 0.00 | 0.00 | 43 | 1007.0 |
| 20260505211605 | 77 | 148 | 1.7 | 6.1 | 0.00 | 0.00 | 0.00 | 43 | 1007.0 |
| 20260505210054 | 77 | 163 | 3.5 | 12.2 | 0.00 | 0.00 | 0.00 | 43 | 1007.1 |
| 20260505204553 | 79 | 155 | 4.3 | 10.4 | 0.00 | 0.00 | 0.00 | 40 | 1006.6 |
| 20260505203054 | 77 | 196 | 3.5 | 10.4 | 0.00 | 0.00 | 0.00 | 41 | 1006.7 |
| 20260505201555 | 76 | 268 | 4.3 | 13.9 | 0.00 | 0.00 | 0.00 | 41 | 1006.6 |
| 20260505200059 | 77 | 230 | 1.7 | 11.3 | 0.00 | 0.00 | 0.00 | 41 | 1006.5 |
| 20260505194555 | 77 | 123 | 6.1 | 13.9 | 0.00 | 0.00 | 0.00 | 40 | 1006.3 |
| 20260505193050 | 78 | 234 | 7.0 | 14.8 | 0.00 | 0.00 | 0.00 | 40 | 1006.4 |
| 20260505191549 | 79 | 255 | 5.2 | 17.4 | 0.00 | 0.00 | 0.00 | 39 | 1006.5 |
| 20260505190050 | 79 | 181 | 4.3 | 14.8 | 0.00 | 0.00 | 0.00 | 40 | 1006.9 |
| 20260505184544 | 78 | 162 | 5.2 | 11.3 | 0.00 | 0.00 | 0.00 | 41 | 1007.3 |
| 20260505183054 | 77 | 259 | 3.5 | 15.6 | 0.00 | 0.00 | 0.00 | 42 | 1007.5 |
| 20260505181546 | 79 | 213 | 3.5 | 13.0 | 0.00 | 0.00 | 0.00 | 41 | 1007.5 |
| 20260505180043 | 78 | 169 | 2.6 | 13.0 | 0.00 | 0.00 | 0.00 | 42 | 1007.9 |
| 20260505174545 | 78 | 250 | 3.5 | 8.7 | 0.00 | 0.00 | 0.00 | 41 | 1008.2 |
| 20260505173037 | 78 | 205 | 4.3 | 10.4 | 0.00 | 0.00 | 0.00 | 41 | 1008.1 |
| 20260505171534 | 78 | 161 | 4.3 | 8.7 | 0.00 | 0.00 | 0.00 | 43 | 1007.8 |
| 20260505170032 | 77 | 232 | 1.7 | 11.3 | 0.00 | 0.00 | 0.00 | 47 | 1007.9 |
| 20260505164528 | 76 | 192 | 5.2 | 13.0 | 0.00 | 0.00 | 0.00 | 46 | 1008.2 |
| 20260505163025 | 76 | 194 | 4.3 | 8.7 | 0.00 | 0.00 | 0.00 | 47 | 1008.7 |
| 20260505161523 | 75 | 61 | 5.2 | 13.0 | 0.00 | 0.00 | 0.00 | 48 | 1008.7 |
| 20260505153013 | 74 | 138 | 3.5 | 18.2 | 0.00 | 0.00 | 0.00 | 50 | 1009.1 |
| 20260505151509 | 73 | 236 | 5.2 | 9.6 | 0.00 | 0.00 | 0.00 | 52 | 1009.2 |
| 20260505140112 | 68 | 153 | 2.6 | 5.2 | 0.00 | 0.00 | 0.00 | 58 | 1009.5 |